Location: Unspecified
(48.1170°N, 0.0000°E)
Time: 23:38:20
(UTC+00:00)

JY1SAT - Pass Details

Date: 17 September 2019
Orbit: 572 x 591 km, 97.7° (Epoch: 15 October)

Event Time Altitude Azimuth Distance (km) Brightness Sun altitude
Exits shadow 22:11:20 17° 333° (NNW) 1,493 ? -35.0°
Drops below altitude 10° 22:12:21 10° 337° (NNW) 1,893 ? -35.1°
Sets 22:14:33 0° 343° (NNW) 2,798 ? -35.3°
